Погода в Калачёве

Россия / Кемеровская область (Кузбасс)     53°47′14″N   86°56′06″E
темп.,
°C
ветер,
м/с
пор.,
м/с
влажн.,
%
обл.,
%
осадки,
мм/ч
давл.,
гПа
погр.,
м
12 мая, ср
ср1201:00+10ссв2250100 0.0 101324
04:00+8всв1153100 0.0 101310
07:00+9ссв0058100 0.0 101442
10:00+14вюв1147100 0.0 1014401
13:00+17ссв3236100 0.0 10131116
16:00+19с3230100 0.0 10122065
19:00+18с1237100 0.0 1013526
22:00+12ююз225497 0.1 101450
13 мая, чт
чт1301:00+10ююз236969 0.1 101464
04:00+7ююз228295 0.0 101536
07:00+9ю248699 0.7 1015165
10:00+14ююз346295 0.1 1014658
13:00+19юз223726 0.1 10132229
16:00+18ююз434196 0.0 10121589
19:00+13сз237596 1.1 1013155
22:00+11ююз228160 0.7 101324
14 мая, пт
пт1401:00+9юз228398 0.7 101318
04:00+8зюз2291100 0.0 101324
07:00+9з128596 0.0 1014147
10:00+10ссз3585100 0.1 1015518
13:00+9зсз2584100 2.3 1017428
16:00+14ссз694959 0.2 10161891
19:00+13ссз694112 0.2 10191450
22:00+7сз2248100 0.0 102341
15 мая, сб
сб1501:00+7зюз2249100 0.0 102424
04:00+6зюз2348100 0.0 102452
07:00+8юз385575 0.0 1025268
10:00+9ююз3856100 0.0 1025393
13:00+11зюз4855100 0.0 1025606
16:00+8юв3889100 3.3 1024294
19:00+11ююв4107844 3.9 1022319
22:00+9ю31185100 0.0 1022258
16 мая, вс
вс1601:00+11ююз5147999 0.1 1020338
04:00+11ююз5137767 0.3 1019376
07:00+12юз4117879 1.2 1019428
10:00+15юз597098 1.2 1018681
13:00+21зюз574950 1.6 10161403
16:00+24зюз71046100 0.0 10142431
19:00+21зюз376196 0.1 1013360
22:00+13вюв1191100 0.4 101516